Weather History for KMCK - December, 2012

Change the Weather History Date:

Monday, December 17, 2012

  Actual Average Record
Temperature  
Mean Temperature 32 °F 27 °F  
Max Temperature 49 °F 40 °F 74 °F (1980)
Min Temperature 15 °F 14 °F -7 °F (1989)
Degree Days  
Heating Degree Days 34    
Moisture  
Dew Point 23 °F    
Average Humidity 74    
Maximum Humidity 89    
Minimum Humidity 54    
Precipitation  
Precipitation 0.00 in 0.02 in 0.25 in (1977)
Month to date precipitation 0.38 0.36  
Year to date precipitation 8.51 22.25  
Sea Level Pressure  
Sea Level Pressure 29.72 in    
Wind  
Wind Speed 8 mph (WSW)    
Max Wind Speed 13 mph    
Max Gust Speed -    
Visibility 10 miles    
Events      
T = Trace of Precipitation, MM = Missing Value Source: NWS Daily Summary

Daily Weather History Graph

Daily Weather History Graph

Search for Another Location

Airport or City:

Trip Planner

Search our weather history database for the weather conditions in past years. The results will help you decide how hot, cold, wet, or windy it might be!

Date:

Astronomy

Dec. 17, 2012 Rise Set
Actual Time 7:59 AM CST 5:18 PM CST
Civil Twilight 7:28 AM CST 5:48 PM CST
Nautical Twilight 6:54 AM CST 6:23 PM CST
Astronomical Twilight 6:21 AM CST 6:56 PM CST
Moon 11:08 AM CST (12/17) 10:42 PM CST (12/17)
Length of Visible Light 10h 20m
Length of Day
9h 18m
Waxing Crescent, 25% of the Moon is Illuminated
Dec 17
Waxing Crescent
Dec 19
First Quarter
Dec 28
Full
Jan 4
Last Quarter
Jan 11
New

Hourly Weather History & Observations

Time (CST) Temp. Windchill Dew Point Humidity Pressure Visibility Wind Dir Wind Speed Gust Speed Precip Events Conditions
12:53 AM 27.0 °F 17.3 °F 24.1 °F 89% 29.83 in 7.0 mi West 10.4 mph - N/A   Clear
1:53 AM 26.1 °F 16.8 °F 21.9 °F 84% 29.83 in 9.0 mi West 9.2 mph - N/A   Clear
2:53 AM 26.1 °F 15.6 °F 19.9 °F 78% 29.83 in 10.0 mi West 11.5 mph - N/A   Scattered Clouds
3:53 AM 23.0 °F 11.7 °F 18.0 °F 81% 29.83 in 10.0 mi WSW 11.5 mph - N/A   Clear
4:53 AM 23.0 °F 13.9 °F 18.0 °F 81% 29.83 in 10.0 mi WSW 8.1 mph - N/A   Clear
5:53 AM 19.9 °F 12.1 °F 16.0 °F 85% 29.83 in 10.0 mi WSW 5.8 mph - N/A   Clear
6:53 AM 21.0 °F 9.9 °F 16.0 °F 81% 29.83 in 10.0 mi West 10.4 mph - N/A   Clear
7:53 AM 16.0 °F 8.8 °F 12.9 °F 88% 29.84 in 6.0 mi West 4.6 mph - N/A   Clear
8:53 AM 19.9 °F 10.1 °F 16.0 °F 85% 29.83 in 10.0 mi WSW 8.1 mph - N/A   Mostly Cloudy
9:53 AM 24.1 °F 19.7 °F 19.9 °F 84% 29.81 in 9.0 mi West 3.5 mph - N/A   Partly Cloudy
10:53 AM 28.0 °F - 21.9 °F 78% 29.78 in 10.0 mi Calm Calm - N/A   Clear
11:53 AM 34.0 °F - 26.1 °F 73% 29.74 in 10.0 mi Calm Calm - N/A   Mostly Cloudy
12:53 PM 39.9 °F 37.8 °F 30.0 °F 68% 29.68 in 10.0 mi ENE 3.5 mph - N/A   Clear
1:53 PM 41.0 °F - 30.9 °F 67% 29.63 in 10.0 mi Calm Calm - N/A   Clear
2:53 PM 46.9 °F - 33.1 °F 59% 29.60 in 10.0 mi Calm Calm - N/A   Partly Cloudy
3:53 PM 46.9 °F - 30.9 °F 54% 29.58 in 10.0 mi SW 5.8 mph - N/A   Mostly Cloudy
6:53 PM 39.0 °F 32.8 °F 26.1 °F 60% 29.57 in 10.0 mi SW 9.2 mph - N/A   Clear
7:53 PM 39.9 °F 33.9 °F 26.1 °F 58% 29.58 in 10.0 mi WSW 9.2 mph - N/A   Overcast
8:53 PM 39.0 °F 31.4 °F 26.1 °F 60% 29.58 in 10.0 mi WSW 12.7 mph - N/A   Clear
9:53 PM 36.0 °F 30.3 °F 25.0 °F 64% 29.58 in 10.0 mi WSW 6.9 mph - N/A   Clear
10:53 PM 34.0 °F 26.6 °F 25.0 °F 70% 29.60 in 10.0 mi SW 9.2 mph - N/A   Clear
11:53 PM 33.1 °F 26.1 °F 24.1 °F 70% 29.62 in 10.0 mi West 8.1 mph - N/A   Clear